{"data":{"norad_id":68402,"intl_designator":"2026-063Y","name":"STARLINK-36360","alt_names":[],"object_type":"PAYLOAD","status":"ACTIVE","operator":null,"country":"US","launch_date":"2026-03-26","launch_site_code":"AFWTR","launch_vehicle":null,"mission":null,"orbit_class":"UNKNOWN","rcs_meters":null,"size_class":null,"mass_kg":null,"dimensions":null,"purposes":["comms"],"wikipedia_slug":null,"has_3d_model":false,"image_url":null,"decayed_at":null,"tle_current":{"epoch":"2026-09-18T15:13:32.219616Z","epoch_age_seconds":208856,"freshness":"STALE","line1":"1 68402U 26063Y   26261.63440069  .00023520  00000+0  72922-3 0  9992","line2":"2 68402  97.2834  42.5375 0001019  87.3824 272.7536 15.33418457 27466","mean_motion":15.33418457,"eccentricity":0.0001019,"inclination_deg":97.2834,"raan_deg":42.5375,"arg_perigee_deg":87.3824,"mean_anomaly_deg":272.7536,"bstar":0.00072922,"rev_number":2746,"period_min":93.907830144241,"perigee_km":464.92476985344,"apogee_km":466.31952796798,"semimajor_km":6843.7591489107,"source":"CELESTRAK","updated_at":"2026-09-20T09:00:43.899180Z"}}}